Location: Unspecified
(51.0950°N, 12.9690°E)
Time: 05:49:34
(UTC+00:00)

NANOSAT C BR1 - Pass Details

Date: 28 April 2024
Orbit: 556 x 561 km, 98.1° (Epoch: 19 May)

Event Time Altitude Azimuth Distance (km) Brightness Sun altitude
Rises 02:08:28 0° 26° (NNE) 2,774 ? -13.5°
Reaches altitude 10° 02:11:03 10° 43° (NE) 1,872 ? -13.2°
Maximum altitude 02:14:09 21° 93° (E) 1,305 ? -12.8°
Drops below altitude 10° 02:17:14 10° 143° (SE) 1,862 ? -12.5°
Sets 02:19:47 0° 159° (SSE) 2,753 ? -12.2°
